Weather History for Cheyenne, WY

Change the Weather History Date:

Sunday, October 6, 2013

  Actual Average Record
Temperature  
Mean Temperature 51 °F 50 °F  
Max Temperature 63 °F 62 °F 81 °F (1905)
Min Temperature 39 °F 37 °F 16 °F (1952)
Degree Days  
Heating Degree Days 14 16  
Month to date heating degree days 113 88  
Since 1 July heating degree days 295 369  
Cooling Degree Days 0 0  
Month to date cooling degree days 0 0  
Year to date cooling degree days 520 348  
Growing Degree Days 1 (Base 50)    
Moisture  
Dew Point 28 °F    
Average Humidity 48    
Maximum Humidity 70    
Minimum Humidity 25    
Precipitation  
Precipitation 0.00 in 0.03 in 0.37 in (1970)
Month to date precipitation 0.82 0.22  
Year to date precipitation 16.20 14.15  
Snow  
Snow 0.00 in 0.20 in 3.70 in (2012)
Month to date snowfall 4.7 0.8  
Since 1 July snowfall 4.7 2.1  
Snow Depth T in    
Sea Level Pressure  
Sea Level Pressure 30.16 in    
Wind  
Wind Speed 13 mph (WNW)    
Max Wind Speed 29 mph    
Max Gust Speed 36 mph    
Visibility 10 miles    
Events      
T = Trace of Precipitation, MM = Missing Value Source: NWS Daily Summary

Daily Weather History Graph

Daily Weather History Graph

Search for Another Location

Airport:

Trip Planner

Search our weather history database for the weather conditions in past years. The results will help you decide how hot, cold, wet, or windy it might be!

Date:

Astronomy

Oct. 06, 2013 Rise Set
Actual Time 7:01 AM MDT 6:32 PM MDT
Civil Twilight 6:33 AM MDT 6:59 PM MDT
Nautical Twilight 6:01 AM MDT 7:31 PM MDT
Astronomical Twilight 5:29 AM MDT 8:03 PM MDT
Moon 8:49 AM MDT (10/6) 7:32 PM MDT (10/6)
Length of Visible Light 12h 25m
Length of Day
11h 30m
Waxing Crescent, 4% of the Moon is Illuminated
Oct 6
Waxing Crescent
Oct 11
First Quarter
Oct 18
Full
Oct 26
Last Quarter
Nov 3
New

Hourly Weather History & Observations

Time (MDT) Temp. Windchill Dew Point Humidity Pressure Visibility Wind Dir Wind Speed Gust Speed Precip Events Conditions
12:53 AM 43.0 °F 34.8 °F 21.0 °F 42% 30.12 in 10.0 mi NW 18.4 mph 27.6 mph N/A   Clear
1:53 AM 43.0 °F 35.1 °F 24.1 °F 47% 30.14 in 10.0 mi WNW 17.3 mph 25.3 mph N/A   Clear
2:53 AM 44.1 °F 37.1 °F 25.0 °F 47% 30.15 in 10.0 mi WNW 15.0 mph - N/A   Clear
3:53 AM 43.0 °F 35.4 °F 25.0 °F 49% 30.15 in 10.0 mi NW 16.1 mph 23.0 mph N/A   Clear
4:53 AM 43.0 °F 35.1 °F 26.1 °F 51% 30.17 in 10.0 mi NNW 17.3 mph 25.3 mph N/A   Clear
5:53 AM 39.9 °F 32.5 °F 27.0 °F 60% 30.21 in 10.0 mi NNW 12.7 mph - N/A   Clear
6:53 AM 39.9 °F 36.7 °F 27.0 °F 60% 30.22 in 10.0 mi WNW 4.6 mph - N/A   Clear
7:53 AM 41.0 °F 37.1 °F 28.0 °F 60% 30.23 in 10.0 mi WSW 5.8 mph - N/A   Clear
8:53 AM 48.0 °F - 28.0 °F 46% 30.24 in 10.0 mi West 11.5 mph 17.3 mph N/A   Clear
9:53 AM 51.1 °F - 28.0 °F 41% 30.22 in 10.0 mi NW 15.0 mph - N/A   Clear
10:53 AM 55.0 °F - 28.9 °F 37% 30.18 in 10.0 mi NW 16.1 mph 29.9 mph N/A   Clear
11:53 AM 57.9 °F - 28.0 °F 32% 30.15 in 10.0 mi NNW 24.2 mph 34.5 mph N/A   Clear
12:53 PM 59.0 °F - 28.0 °F 31% 30.15 in 10.0 mi NW 18.4 mph 35.7 mph N/A   Clear
1:53 PM 60.1 °F - 28.0 °F 30% 30.12 in 10.0 mi WNW 19.6 mph 33.4 mph N/A   Clear
2:53 PM 62.1 °F - 28.0 °F 28% 30.11 in 10.0 mi NW 17.3 mph 27.6 mph N/A   Clear
3:53 PM 62.1 °F - 27.0 °F 26% 30.11 in 10.0 mi NW 19.6 mph 27.6 mph N/A   Clear
4:53 PM 61.0 °F - 27.0 °F 27% 30.13 in 10.0 mi NW 19.6 mph 25.3 mph N/A   Clear
5:53 PM 60.1 °F - 28.0 °F 30% 30.14 in 10.0 mi NW 10.4 mph - N/A   Clear
6:53 PM 54.0 °F - 30.9 °F 41% 30.18 in 10.0 mi NNW 8.1 mph - N/A   Clear
7:53 PM 50.0 °F - 32.0 °F 50% 30.19 in 10.0 mi WNW 4.6 mph - N/A   Clear
8:53 PM 46.0 °F 40.6 °F 34.0 °F 63% 30.18 in 10.0 mi West 11.5 mph - N/A   Clear
9:53 PM 45.0 °F 41.2 °F 34.0 °F 65% 30.16 in 10.0 mi West 6.9 mph - N/A   Clear
10:53 PM 42.1 °F 37.1 °F 33.1 °F 70% 30.15 in 10.0 mi SSW 8.1 mph - N/A   Clear
11:53 PM 44.1 °F 39.5 °F 32.0 °F 63% 30.12 in 10.0 mi SW 8.1 mph - N/A   Clear